| time (UTC) | temp F | wind direction | speed knots | gust knots | rain 1hr in | rain 24hr in | rain mn in | humidity % | barometer mb |
| 20260906165705 | 76 | 92 | 5.2 | 10.4 | 0.00 | 0.00 | 0.00 | 71 | 1022.7 |
| 20260906165204 | 76 | 98 | 3.5 | 10.4 | 0.00 | 0.00 | 0.00 | 71 | 1022.7 |
| 20260906164704 | 75 | 88 | 5.2 | 10.4 | 0.00 | 0.00 | 0.00 | 72 | 1022.8 |
| 20260906164204 | 75 | 118 | 1.7 | 8.7 | 0.00 | 0.00 | 0.00 | 73 | 1022.9 |
| 20260906163704 | 75 | 102 | 2.6 | 11.3 | 0.00 | 0.00 | 0.00 | 72 | 1022.8 |
| 20260906163204 | 75 | 74 | 5.2 | 11.3 | 0.00 | 0.00 | 0.00 | 71 | 1022.8 |
| 20260906162704 | 75 | 100 | 5.2 | 8.7 | 0.00 | 0.00 | 0.00 | 72 | 1022.8 |
| 20260906162204 | 75 | 87 | 1.7 | 10.4 | 0.00 | 0.00 | 0.00 | 74 | 1022.9 |
| 20260906161704 | 74 | 115 | 3.5 | 10.4 | 0.00 | 0.00 | 0.00 | 73 | 1022.9 |
| 20260906161204 | 74 | 127 | 5.2 | 10.4 | 0.00 | 0.00 | 0.00 | 75 | 1022.9 |
| 20260906160704 | 74 | 88 | 1.7 | 10.4 | 0.00 | 0.00 | 0.00 | 75 | 1023.0 |
| 20260906160204 | 74 | 103 | 6.1 | 10.4 | 0.00 | 0.00 | 0.00 | 75 | 1023.0 |
| 20260906155704 | 74 | 65 | 4.3 | 8.7 | 0.00 | 0.00 | 0.00 | 78 | 1022.8 |
| 20260906155204 | 74 | 57 | 5.2 | 8.7 | 0.00 | 0.00 | 0.00 | 77 | 1022.9 |
| 20260906154704 | 74 | 75 | 4.3 | 8.7 | 0.00 | 0.00 | 0.00 | 77 | 1022.8 |
| 20260906154204 | 73 | 82 | 2.6 | 7.8 | 0.00 | 0.00 | 0.00 | 77 | 1022.8 |
| 20260906153704 | 73 | 92 | 2.6 | 7.8 | 0.00 | 0.00 | 0.00 | 79 | 1022.8 |
| 20260906152704 | 72 | 85 | 4.3 | 8.7 | 0.00 | 0.00 | 0.00 | 80 | 1022.7 |
| 20260906152204 | 72 | 49 | 5.2 | 8.7 | 0.00 | 0.00 | 0.00 | 80 | 1022.6 |
| 20260906151704 | 72 | 62 | 2.6 | 8.7 | 0.00 | 0.00 | 0.00 | 80 | 1022.7 |
| 20260906151204 | 72 | 78 | 5.2 | 10.4 | 0.00 | 0.00 | 0.00 | 80 | 1022.6 |
| 20260906150704 | 71 | 91 | 5.2 | 10.4 | 0.00 | 0.00 | 0.00 | 80 | 1022.7 |
| 20260906150204 | 71 | 56 | 4.3 | 10.4 | 0.00 | 0.00 | 0.00 | 81 | 1022.8 |
| 20260906145705 | 71 | 71 | 4.3 | 10.4 | 0.00 | 0.00 | 0.00 | 82 | 1022.8 |
| 20260906145204 | 71 | 69 | 7.8 | 10.4 | 0.00 | 0.00 | 0.00 | 82 | 1022.7 |
| 20260906144704 | 70 | 86 | 4.3 | 8.7 | 0.00 | 0.00 | 0.00 | 83 | 1022.6 |
| 20260906144204 | 70 | 85 | 4.3 | 10.4 | 0.00 | 0.00 | 0.00 | 83 | 1022.6 |
| 20260906143704 | 70 | 71 | 4.3 | 10.4 | 0.00 | 0.00 | 0.00 | 84 | 1022.7 |
| 20260906143204 | 70 | 93 | 5.2 | 8.7 | 0.00 | 0.00 | 0.00 | 85 | 1022.7 |
| 20260906142203 | 69 | 40 | 2.6 | 7.8 | 0.00 | 0.00 | 0.00 | 87 | 1022.5 |
| 20260906141703 | 69 | 56 | 4.3 | 7.8 | 0.00 | 0.00 | 0.00 | 86 | 1022.4 |
| 20260906141204 | 68 | 56 | 4.3 | 7.8 | 0.00 | 0.00 | 0.00 | 87 | 1022.4 |
| 20260906140704 | 68 | 58 | 4.3 | 7.8 | 0.00 | 0.00 | 0.00 | 86 | 1022.5 |
| 20260906140204 | 68 | 63 | 2.6 | 8.7 | 0.00 | 0.00 | 0.00 | 87 | 1022.6 |
| 20260906135704 | 67 | 88 | 4.3 | 10.4 | 0.00 | 0.00 | 0.00 | 87 | 1022.7 |
| 20260906134704 | 67 | 90 | 3.5 | 7.8 | 0.00 | 0.00 | 0.00 | 89 | 1022.7 |
| 20260906134204 | 66 | 105 | 2.6 | 8.7 | 0.00 | 0.00 | 0.00 | 89 | 1022.7 |
| 20260906133704 | 66 | 66 | 4.3 | 8.7 | 0.00 | 0.00 | 0.00 | 89 | 1022.7 |
| 20260906133204 | 66 | 78 | 5.2 | 10.4 | 0.00 | 0.00 | 0.00 | 90 | 1022.7 |
| 20260906132705 | 65 | 85 | 3.5 | 10.4 | 0.00 | 0.00 | 0.00 | 90 | 1022.8 |
| 20260906132204 | 65 | 77 | 3.5 | 8.7 | 0.00 | 0.00 | 0.00 | 91 | 1023.0 |
| 20260906131703 | 65 | 83 | 3.5 | 8.7 | 0.00 | 0.00 | 0.00 | 91 | 1023.0 |
| 20260906131204 | 65 | 40 | 2.6 | 6.1 | 0.00 | 0.00 | 0.00 | 91 | 1023.0 |
| 20260906130704 | 65 | 55 | 2.6 | 5.2 | 0.00 | 0.00 | 0.00 | 91 | 1023.0 |
| 20260906130204 | 64 | 53 | 3.5 | 6.1 | 0.00 | 0.00 | 0.00 | 92 | 1022.9 |
| 20260906125704 | 64 | 49 | 2.6 | 6.1 | 0.00 | 0.00 | 0.00 | 93 | 1022.9 |
| 20260906125204 | 63 | 73 | 1.7 | 5.2 | 0.00 | 0.00 | 0.00 | 93 | 1022.8 |
| 20260906124704 | 63 | 47 | 2.6 | 5.2 | 0.00 | 0.00 | 0.00 | 93 | 1022.8 |
| 20260906124204 | 63 | 41 | 2.6 | 5.2 | 0.00 | 0.00 | 0.00 | 93 | 1022.7 |
| 20260906123703 | 62 | 44 | 2.6 | 4.3 | 0.00 | 0.00 | 0.00 | 94 | 1022.6 |
| 20260906123204 | 62 | 44 | 2.6 | 4.3 | 0.00 | 0.00 | 0.00 | 94 | 1022.5 |
| 20260906122705 | 62 | 51 | 1.7 | 4.3 | 0.00 | 0.00 | 0.00 | 94 | 1022.4 |
| 20260906122204 | 61 | 60 | 1.7 | 4.3 | 0.00 | 0.00 | 0.00 | 94 | 1022.4 |
| 20260906121704 | 61 | 59 | 2.6 | 4.3 | 0.00 | 0.00 | 0.00 | 94 | 1022.2 |
| 20260906121204 | 61 | 55 | 2.6 | 4.3 | 0.00 | 0.00 | 0.00 | 94 | 1022.2 |
| 20260906120704 | 61 | 52 | 1.7 | 2.6 | 0.00 | 0.00 | 0.00 | 94 | 1022.3 |
| 20260906120204 | 61 | 48 | 1.7 | 4.3 | 0.00 | 0.00 | 0.00 | 94 | 1022.1 |
| 20260906115704 | 61 | 43 | 2.6 | 4.3 | 0.00 | 0.00 | 0.00 | 93 | 1022.0 |
| 20260906115204 | 61 | 56 | 2.6 | 4.3 | 0.00 | 0.00 | 0.00 | 93 | 1021.9 |
| 20260906114704 | 61 | 51 | 2.6 | 5.2 | 0.00 | 0.00 | 0.00 | 93 | 1021.8 |
| 20260906114204 | 61 | 56 | 2.6 | 5.2 | 0.00 | 0.00 | 0.00 | 93 | 1021.7 |
| 20260906113704 | 61 | 49 | 4.3 | 5.2 | 0.00 | 0.00 | 0.00 | 93 | 1021.7 |
| 20260906113204 | 61 | 52 | 3.5 | 4.3 | 0.00 | 0.00 | 0.00 | 93 | 1021.7 |
| 20260906112704 | 61 | 46 | 2.6 | 4.3 | 0.00 | 0.00 | 0.00 | 93 | 1021.8 |
| 20260906111704 | 61 | 50 | 2.6 | 6.1 | 0.00 | 0.00 | 0.00 | 94 | 1021.7 |
| 20260906111204 | 61 | 48 | 2.6 | 6.1 | 0.00 | 0.00 | 0.00 | 94 | 1021.7 |
| 20260906110204 | 61 | 48 | 2.6 | 4.3 | 0.00 | 0.00 | 0.00 | 93 | 1021.6 |
| 20260906105204 | 61 | 56 | 2.6 | 4.3 | 0.00 | 0.00 | 0.00 | 94 | 1021.4 |
| 20260906104704 | 61 | 62 | 2.6 | 4.3 | 0.00 | 0.00 | 0.00 | 94 | 1021.2 |
| 20260906104204 | 61 | 67 | 2.6 | 4.3 | 0.00 | 0.00 | 0.00 | 94 | 1021.2 |
| 20260906103204 | 60 | 49 | 2.6 | 4.3 | 0.00 | 0.00 | 0.00 | 93 | 1021.4 |
| 20260906102204 | 60 | 42 | 2.6 | 2.6 | 0.00 | 0.00 | 0.00 | 92 | 1021.4 |
| 20260906101704 | 61 | 57 | 1.7 | 2.6 | 0.00 | 0.00 | 0.00 | 93 | 1021.4 |
| 20260906100204 | 61 | 57 | 1.7 | 2.6 | 0.00 | 0.00 | 0.00 | 93 | 1021.3 |
| 20260906095204 | 61 | 64 | 1.7 | 2.6 | 0.00 | 0.00 | 0.00 | 93 | 1021.1 |
| 20260906094704 | 61 | 50 | 2.6 | 2.6 | 0.00 | 0.00 | 0.00 | 93 | 1021.1 |
| 20260906094205 | 62 | 46 | 1.7 | 2.6 | 0.00 | 0.00 | 0.00 | 93 | 1021.2 |
| 20260906093204 | 62 | 46 | 1.7 | 2.6 | 0.00 | 0.00 | 0.00 | 93 | 1021.3 |
| 20260906092704 | 62 | 46 | 2.6 | 2.6 | 0.00 | 0.00 | 0.00 | 93 | 1021.3 |
| 20260906092204 | 62 | 57 | 1.7 | 2.6 | 0.00 | 0.00 | 0.00 | 93 | 1021.2 |
| 20260906091204 | 62 | 30 | 2.6 | 2.6 | 0.00 | 0.00 | 0.00 | 93 | 1021.4 |
| 20260906090704 | 62 | 38 | 2.6 | 2.6 | 0.00 | 0.00 | 0.00 | 93 | 1021.2 |
| 20260906085704 | 62 | 38 | 2.6 | 2.6 | 0.00 | 0.00 | 0.00 | 93 | 1021.2 |
| 20260906084704 | 62 | 25 | 2.6 | 2.6 | 0.00 | 0.00 | 0.00 | 92 | 1021.2 |
| 20260906084204 | 63 | 42 | 1.7 | 2.6 | 0.00 | 0.00 | 0.00 | 93 | 1021.1 |
| 20260906083704 | 63 | 42 | 1.7 | 2.6 | 0.00 | 0.00 | 0.00 | 93 | 1021.1 |
| 20260906083204 | 63 | 42 | 1.7 | 2.6 | 0.00 | 0.00 | 0.00 | 93 | 1021.0 |
| 20260906082704 | 63 | 42 | 1.7 | 2.6 | 0.00 | 0.00 | 0.00 | 93 | 1020.9 |
| 20260906082204 | 63 | 42 | 1.7 | 2.6 | 0.00 | 0.00 | 0.00 | 93 | 1020.8 |
| 20260906081704 | 64 | 36 | 1.7 | 2.6 | 0.00 | 0.00 | 0.00 | 93 | 1020.9 |
| 20260906081204 | 64 | 53 | 1.7 | 4.3 | 0.00 | 0.00 | 0.00 | 94 | 1021.0 |
| 20260906080704 | 64 | 38 | 1.7 | 4.3 | 0.00 | 0.00 | 0.00 | 94 | 1021.0 |
| 20260906080204 | 64 | 34 | 1.7 | 2.6 | 0.00 | 0.00 | 0.00 | 93 | 1021.2 |
| 20260906075704 | 64 | 39 | 1.7 | 2.6 | 0.00 | 0.00 | 0.00 | 94 | 1021.1 |
| 20260906075204 | 64 | 39 | 1.7 | 2.6 | 0.00 | 0.00 | 0.00 | 93 | 1020.9 |
| 20260906074704 | 64 | 39 | 1.7 | 2.6 | 0.00 | 0.00 | 0.00 | 94 | 1020.9 |
| 20260906074204 | 64 | 39 | 1.7 | 2.6 | 0.00 | 0.00 | 0.00 | 93 | 1021.0 |
| 20260906073704 | 64 | 39 | 1.7 | 2.6 | 0.00 | 0.00 | 0.00 | 93 | 1021.0 |
| 20260906073204 | 64 | 55 | 1.7 | 2.6 | 0.00 | 0.00 | 0.00 | 93 | 1021.1 |
| 20260906072204 | 64 | 82 | 1.7 | 2.6 | 0.00 | 0.00 | 0.00 | 93 | 1020.9 |
| 20260906071704 | 64 | 84 | 2.6 | 5.2 | 0.00 | 0.00 | 0.00 | 94 | 1020.8 |
| 20260906071204 | 64 | 82 | 1.7 | 5.2 | 0.00 | 0.00 | 0.00 | 94 | 1021.0 |
| 20260906070205 | 63 | 73 | 2.6 | 2.6 | 0.00 | 0.00 | 0.00 | 94 | 1021.1 |
| 20260906065704 | 63 | 76 | 2.6 | 2.6 | 0.00 | 0.00 | 0.00 | 94 | 1021.1 |
| 20260906064704 | 63 | 319 | 0.9 | 1.7 | 0.00 | 0.00 | 0.00 | 93 | 1021.3 |
| 20260906064204 | 63 | 309 | 0.9 | 1.7 | 0.00 | 0.00 | 0.00 | 93 | 1021.3 |
| 20260906063204 | 63 | 309 | 0.0 | 2.6 | 0.00 | 0.00 | 0.00 | 93 | 1021.2 |
| 20260906062204 | 63 | 309 | 1.7 | 2.6 | 0.00 | 0.00 | 0.00 | 92 | 1021.3 |
| 20260906061704 | 63 | 284 | 1.7 | 2.6 | 0.00 | 0.00 | 0.00 | 92 | 1021.2 |
| 20260906061204 | 63 | 194 | 1.7 | 2.6 | 0.00 | 0.00 | 0.00 | 93 | 1021.1 |
| 20260906060704 | 63 | 194 | 1.7 | 2.6 | 0.00 | 0.00 | 0.00 | 93 | 1021.0 |
| 20260906055704 | 63 | 194 | 0.0 | 0.9 | 0.00 | 0.00 | 0.00 | 92 | 1020.7 |
| 20260906055204 | 63 | 194 | 0.0 | 1.7 | 0.00 | 0.00 | 0.00 | 92 | 1020.7 |
| 20260906054704 | 64 | 194 | 0.9 | 1.7 | 0.00 | 0.00 | 0.00 | 92 | 1020.7 |
| 20260906054204 | 64 | 194 | 0.9 | 1.7 | 0.00 | 0.00 | 0.00 | 92 | 1020.7 |
| 20260906053704 | 64 | 194 | 0.9 | 1.7 | 0.00 | 0.00 | 0.00 | 93 | 1020.8 |
| 20260906053204 | 64 | 194 | 0.9 | 1.7 | 0.00 | 0.00 | 0.00 | 93 | 1020.8 |
| 20260906052204 | 64 | 143 | 0.0 | 0.9 | 0.00 | 0.00 | 0.00 | 92 | 1020.6 |
| 20260906051704 | 64 | 143 | 0.0 | 1.7 | 0.00 | 0.00 | 0.00 | 92 | 1020.5 |
| 20260906051204 | 64 | 143 | 0.0 | 2.6 | 0.00 | 0.00 | 0.00 | 92 | 1020.5 |
| 20260906050704 | 64 | 143 | 1.7 | 2.6 | 0.00 | 0.00 | 0.00 | 92 | 1020.5 |
| 20260906050204 | 64 | 139 | 1.7 | 2.6 | 0.00 | 0.00 | 0.00 | 92 | 1020.6 |
| 20260906045705 | 65 | 121 | 0.9 | 1.7 | 0.00 | 0.00 | 0.00 | 92 | 1020.7 |
| 20260906045205 | 65 | 121 | 0.0 | 1.7 | 0.00 | 0.00 | 0.00 | 92 | 1020.7 |
| 20260906044705 | 65 | 121 | 0.9 | 1.7 | 0.00 | 0.00 | 0.00 | 92 | 1020.6 |
| 20260906044204 | 65 | 121 | 0.9 | 1.7 | 0.00 | 0.00 | 0.00 | 92 | 1020.6 |
| 20260906043704 | 65 | 123 | 0.9 | 1.7 | 0.00 | 0.00 | 0.00 | 92 | 1020.5 |
| 20260906043205 | 65 | 121 | 0.9 | 2.6 | 0.00 | 0.00 | 0.00 | 92 | 1020.5 |
| 20260906042705 | 65 | 121 | 0.9 | 2.6 | 0.00 | 0.00 | 0.00 | 92 | 1020.5 |
| 20260906042204 | 66 | 88 | 0.9 | 2.6 | 0.00 | 0.00 | 0.00 | 92 | 1020.4 |
| 20260906041704 | 66 | 88 | 1.7 | 2.6 | 0.00 | 0.00 | 0.00 | 92 | 1020.4 |
| 20260906041204 | 66 | 87 | 1.7 | 6.1 | 0.00 | 0.00 | 0.00 | 92 | 1020.3 |
| 20260906040704 | 66 | 105 | 0.9 | 6.1 | 0.00 | 0.00 | 0.00 | 92 | 1020.3 |
| 20260906040204 | 66 | 81 | 1.7 | 6.1 | 0.00 | 0.00 | 0.00 | 92 | 1020.2 |
| 20260906034704 | 66 | 85 | 1.7 | 5.2 | 0.00 | 0.00 | 0.00 | 92 | 1020.0 |
| 20260906034204 | 66 | 90 | 1.7 | 5.2 | 0.00 | 0.00 | 0.00 | 92 | 1019.9 |
| 20260906033704 | 66 | 89 | 1.7 | 4.3 | 0.00 | 0.00 | 0.00 | 91 | 1019.7 |
| 20260906032704 | 66 | 82 | 1.7 | 4.3 | 0.00 | 0.00 | 0.00 | 91 | 1019.8 |
| 20260906032204 | 66 | 80 | 2.6 | 2.6 | 0.00 | 0.00 | 0.00 | 91 | 1019.9 |
| 20260906031204 | 67 | 84 | 0.9 | 2.6 | 0.00 | 0.00 | 0.00 | 91 | 1019.9 |
| 20260906030704 | 67 | 84 | 1.7 | 2.6 | 0.00 | 0.00 | 0.00 | 91 | 1019.8 |
| 20260906024704 | 67 | 61 | 1.7 | 2.6 | 0.00 | 0.00 | 0.00 | 91 | 1019.5 |
| 20260906024204 | 67 | 61 | 1.7 | 2.6 | 0.00 | 0.00 | 0.00 | 91 | 1019.5 |
| 20260906023203 | 67 | 64 | 1.7 | 2.6 | 0.00 | 0.00 | 0.00 | 91 | 1019.4 |
| 20260906022204 | 67 | 64 | 1.7 | 4.3 | 0.00 | 0.00 | 0.00 | 90 | 1019.5 |
| 20260906021704 | 67 | 56 | 2.6 | 4.3 | 0.00 | 0.00 | 0.00 | 90 | 1019.3 |
| 20260906021204 | 67 | 54 | 2.6 | 2.6 | 0.00 | 0.00 | 0.00 | 90 | 1019.3 |
| 20260906020704 | 67 | 67 | 2.6 | 2.6 | 0.00 | 0.00 | 0.00 | 90 | 1019.2 |
| 20260906020204 | 67 | 84 | 0.9 | 2.6 | 0.00 | 0.00 | 0.00 | 90 | 1019.2 |
| 20260906015704 | 68 | 84 | 0.9 | 2.6 | 0.00 | 0.00 | 0.00 | 89 | 1019.1 |
| 20260906015204 | 68 | 77 | 1.7 | 4.3 | 0.00 | 0.00 | 0.00 | 89 | 1019.1 |
| 20260906014704 | 68 | 76 | 2.6 | 4.3 | 0.00 | 0.00 | 0.00 | 89 | 1019.0 |
| 20260906013704 | 68 | 119 | 0.9 | 2.6 | 0.00 | 0.00 | 0.00 | 88 | 1019.1 |
| 20260906013204 | 68 | 119 | 0.9 | 2.6 | 0.00 | 0.00 | 0.00 | 88 | 1019.1 |
| 20260906012704 | 69 | 119 | 1.7 | 2.6 | 0.00 | 0.00 | 0.00 | 87 | 1019.0 |
| 20260906012204 | 69 | 119 | 0.9 | 1.7 | 0.00 | 0.00 | 0.00 | 87 | 1019.0 |
| 20260906011704 | 69 | 119 | 0.0 | 1.7 | 0.00 | 0.00 | 0.00 | 86 | 1019.0 |
| 20260906011205 | 69 | 119 | 0.0 | 1.7 | 0.00 | 0.00 | 0.00 | 86 | 1018.8 |
| 20260906010704 | 70 | 119 | 0.9 | 2.6 | 0.00 | 0.00 | 0.00 | 86 | 1018.8 |
| 20260906010204 | 70 | 119 | 0.9 | 2.6 | 0.00 | 0.00 | 0.00 | 85 | 1018.7 |
| 20260906005704 | 70 | 97 | 0.9 | 2.6 | 0.00 | 0.00 | 0.00 | 85 | 1018.7 |
| 20260906005204 | 71 | 116 | 0.9 | 2.6 | 0.00 | 0.00 | 0.00 | 84 | 1018.7 |
| 20260906004704 | 71 | 94 | 0.9 | 2.6 | 0.00 | 0.00 | 0.00 | 84 | 1018.7 |
| 20260906004204 | 71 | 118 | 0.9 | 2.6 | 0.00 | 0.00 | 0.00 | 84 | 1018.6 |
| 20260906003204 | 72 | 96 | 1.7 | 2.6 | 0.00 | 0.00 | 0.00 | 83 | 1018.5 |
| 20260906002704 | 72 | 120 | 1.7 | 2.6 | 0.00 | 0.00 | 0.00 | 83 | 1018.6 |
| 20260906001204 | 73 | 91 | 0.9 | 2.6 | 0.00 | 0.08 | 0.00 | 81 | 1018.7 |
| 20260906000704 | 73 | 83 | 0.9 | 5.2 | 0.00 | 0.19 | 0.00 | 81 | 1018.7 |
| 20260906000205 | 73 | 89 | 1.7 | 5.2 | 0.00 | 0.19 | 0.00 | 80 | 1018.7 |
| 20260905235704 | 74 | 76 | 1.7 | 4.3 | 0.00 | 0.19 | 0.00 | 80 | 1018.8 |
| 20260905235204 | 74 | 97 | 1.7 | 6.1 | 0.00 | 0.19 | 0.00 | 80 | 1018.9 |
| 20260905234704 | 74 | 123 | 1.7 | 6.1 | 0.00 | 0.19 | 0.00 | 80 | 1018.9 |
| 20260905234203 | 74 | 107 | 1.7 | 6.1 | 0.00 | 0.19 | 0.00 | 81 | 1018.9 |
| 20260905233704 | 74 | 102 | 2.6 | 6.1 | 0.00 | 0.19 | 0.00 | 80 | 1018.9 |
| 20260905232704 | 74 | 78 | 1.7 | 6.1 | 0.00 | 0.19 | 0.00 | 80 | 1019.0 |
| 20260905232204 | 74 | 101 | 3.5 | 6.1 | 0.00 | 0.19 | 0.00 | 80 | 1019.0 |
| 20260905231704 | 74 | 102 | 2.6 | 6.1 | 0.00 | 0.19 | 0.00 | 80 | 1018.9 |
| 20260905231204 | 74 | 92 | 2.6 | 6.1 | 0.00 | 0.19 | 0.00 | 79 | 1018.9 |
| 20260905230704 | 74 | 108 | 1.7 | 6.1 | 0.00 | 0.19 | 0.00 | 80 | 1018.9 |
| 20260905225704 | 74 | 86 | 3.5 | 6.1 | 0.00 | 0.19 | 0.00 | 79 | 1018.9 |
| 20260905225204 | 74 | 84 | 1.7 | 5.2 | 0.00 | 0.19 | 0.00 | 78 | 1019.0 |
| 20260905224704 | 74 | 51 | 1.7 | 5.2 | 0.00 | 0.19 | 0.00 | 79 | 1019.1 |
| 20260905224204 | 74 | 56 | 1.7 | 5.2 | 0.00 | 0.19 | 0.00 | 79 | 1019.1 |
| 20260905223705 | 74 | 73 | 1.7 | 2.6 | 0.00 | 0.19 | 0.00 | 80 | 1019.2 |
| 20260905223204 | 74 | 50 | 0.9 | 7.0 | 0.00 | 0.19 | 0.00 | 81 | 1019.1 |
| 20260905222704 | 74 | 112 | 1.7 | 7.0 | 0.00 | 0.19 | 0.00 | 81 | 1019.1 |
| 20260905222204 | 74 | 85 | 4.3 | 7.8 | 0.00 | 0.19 | 0.00 | 80 | 1019.0 |
| 20260905221704 | 74 | 120 | 3.5 | 7.8 | 0.00 | 0.19 | 0.00 | 80 | 1019.1 |
| 20260905221204 | 74 | 76 | 1.7 | 7.8 | 0.00 | 0.19 | 0.00 | 81 | 1019.1 |
| 20260905220705 | 74 | 107 | 2.6 | 7.8 | 0.00 | 0.19 | 0.00 | 80 | 1019.2 |
| 20260905220204 | 74 | 95 | 3.5 | 7.8 | 0.00 | 0.19 | 0.00 | 80 | 1019.2 |
| 20260905215704 | 74 | 34 | 3.5 | 7.8 | 0.00 | 0.19 | 0.00 | 81 | 1019.2 |
| 20260905215204 | 74 | 51 | 4.3 | 10.4 | 0.00 | 0.19 | 0.00 | 80 | 1019.2 |
| 20260905214705 | 74 | 83 | 4.3 | 10.4 | 0.00 | 0.19 | 0.00 | 80 | 1019.2 |
| 20260905214204 | 74 | 66 | 4.3 | 10.4 | 0.00 | 0.19 | 0.00 | 80 | 1018.9 |
| 20260905213704 | 74 | 41 | 3.5 | 11.3 | 0.00 | 0.19 | 0.00 | 79 | 1019.0 |
| 20260905212704 | 75 | 60 | 6.1 | 11.3 | 0.00 | 0.19 | 0.00 | 79 | 1018.9 |
| 20260905212204 | 75 | 55 | 6.1 | 10.4 | 0.00 | 0.19 | 0.00 | 79 | 1018.9 |
| 20260905211704 | 75 | 55 | 6.1 | 12.2 | 0.00 | 0.19 | 0.00 | 79 | 1018.9 |
| 20260905211204 | 75 | 55 | 5.2 | 12.2 | 0.00 | 0.19 | 0.00 | 79 | 1018.8 |
| 20260905210705 | 75 | 84 | 7.0 | 13.9 | 0.00 | 0.19 | 0.00 | 79 | 1018.7 |
| 20260905210205 | 75 | 59 | 8.7 | 13.9 | 0.00 | 0.19 | 0.00 | 78 | 1018.8 |
| 20260905205205 | 76 | 66 | 7.0 | 13.0 | 0.00 | 0.19 | 0.00 | 77 | 1018.8 |
| 20260905204704 | 77 | 49 | 5.2 | 11.3 | 0.00 | 0.19 | 0.00 | 78 | 1018.9 |
| 20260905204204 | 77 | 94 | 4.3 | 10.4 | 0.00 | 0.19 | 0.00 | 78 | 1019.0 |
| 20260905203704 | 77 | 66 | 4.3 | 11.3 | 0.00 | 0.19 | 0.00 | 79 | 1019.1 |
| 20260905203204 | 77 | 76 | 7.0 | 11.3 | 0.00 | 0.19 | 0.00 | 78 | 1019.0 |
| 20260905202704 | 77 | 83 | 4.3 | 10.4 | 0.00 | 0.19 | 0.00 | 79 | 1019.2 |
| 20260905202204 | 76 | 61 | 6.1 | 10.4 | 0.00 | 0.19 | 0.00 | 80 | 1019.2 |
| 20260905201704 | 76 | 39 | 6.1 | 10.4 | 0.00 | 0.19 | 0.00 | 80 | 1019.0 |
| 20260905201204 | 76 | 45 | 7.0 | 10.4 | 0.00 | 0.19 | 0.00 | 81 | 1018.9 |
| 20260905200704 | 75 | 61 | 5.2 | 10.4 | 0.00 | 0.19 | 0.00 | 82 | 1018.9 |
| 20260905200204 | 75 | 73 | 4.3 | 10.4 | 0.00 | 0.19 | 0.00 | 82 | 1018.9 |
| 20260905195704 | 75 | 67 | 4.3 | 10.4 | 0.00 | 0.19 | 0.00 | 81 | 1019.0 |
| 20260905194704 | 75 | 61 | 4.3 | 7.8 | 0.00 | 0.19 | 0.00 | 82 | 1019.1 |
| 20260905193204 | 75 | 83 | 4.3 | 10.4 | 0.00 | 0.19 | 0.00 | 82 | 1019.2 |
| 20260905192204 | 75 | 21 | 4.3 | 8.7 | 0.00 | 0.19 | 0.00 | 82 | 1019.0 |
| 20260905190705 | 75 | 34 | 5.2 | 8.7 | 0.00 | 0.19 | 0.00 | 82 | 1019.2 |
| 20260905190205 | 75 | 32 | 4.3 | 8.7 | 0.00 | 0.19 | 0.00 | 82 | 1019.1 |
| 20260905185704 | 75 | 25 | 5.2 | 8.7 | 0.00 | 0.19 | 0.00 | 82 | 1019.1 |
| 20260905185204 | 75 | 55 | 5.2 | 8.7 | 0.00 | 0.19 | 0.00 | 82 | 1019.1 |
| 20260905184704 | 75 | 48 | 2.6 | 10.4 | 0.00 | 0.19 | 0.00 | 82 | 1019.0 |
| 20260905184204 | 75 | 60 | 2.6 | 10.4 | 0.00 | 0.19 | 0.00 | 82 | 1019.0 |
| 20260905183204 | 75 | 26 | 2.6 | 10.4 | 0.00 | 0.19 | 0.00 | 82 | 1019.1 |
| 20260905182704 | 75 | 31 | 4.3 | 8.7 | 0.00 | 0.19 | 0.00 | 82 | 1018.9 |
| 20260905182204 | 75 | 47 | 4.3 | 7.8 | 0.00 | 0.19 | 0.00 | 81 | 1019.0 |
| 20260905181704 | 75 | 46 | 2.6 | 7.0 | 0.00 | 0.19 | 0.00 | 82 | 1019.1 |
| 20260905181204 | 75 | 74 | 2.6 | 7.8 | 0.00 | 0.19 | 0.00 | 81 | 1019.0 |
| 20260905180704 | 75 | 61 | 4.3 | 7.8 | 0.00 | 0.19 | 0.00 | 82 | 1019.1 |
| 20260905180204 | 75 | 32 | 4.3 | 7.0 | 0.00 | 0.19 | 0.00 | 82 | 1019.1 |
| 20260905175704 | 75 | 35 | 3.5 | 7.0 | 0.00 | 0.19 | 0.00 | 82 | 1019.2 |
| 20260905175204 | 75 | 43 | 2.6 | 7.0 | 0.00 | 0.19 | 0.00 | 81 | 1019.3 |
| 20260905174204 | 75 | 23 | 5.2 | 7.8 | 0.00 | 0.19 | 0.00 | 81 | 1019.4 |
| 20260905173703 | 76 | 42 | 5.2 | 7.8 | 0.00 | 0.19 | 0.00 | 80 | 1019.4 |
| 20260905173205 | 76 | 43 | 3.5 | 6.1 | 0.00 | 0.19 | 0.00 | 80 | 1019.5 |
| 20260905172704 | 75 | 52 | 1.7 | 6.1 | 0.00 | 0.19 | 0.00 | 82 | 1019.5 |
| 20260905171204 | 75 | 40 | 1.7 | 5.2 | 0.00 | 0.19 | 0.00 | 82 | 1019.3 |
| 20260905170703 | 75 | 76 | 0.9 | 6.1 | 0.00 | 0.19 | 0.00 | 83 | 1019.3 |
| 20260905170204 | 74 | 92 | 1.7 | 6.1 | 0.00 | 0.19 | 0.00 | 83 | 1019.3 |